Location: Bletchingley
(51.2333°N, 0.1000°W)
Time: 12:35:19
(UTC+00:00)

ATLAS CENTAUR R/B - Pass Details

Date: 18 September 2020
Orbit: 479 x 667 km, 64.7° (Epoch: 12 October)

Event Time Altitude Azimuth Distance (km) Brightness Sun altitude
Rises 19:26:24 0° 270° (W) 2,643 6.3 -13.0°
Reaches altitude 10° 19:29:11 10° 290° (WNW) 1,726 5.3 -13.4°
Maximum altitude 19:31:51 18° 335° (NNW) 1,290 3.8 -13.8°
Drops below altitude 10° 19:34:28 10° 19° (NNE) 1,685 3.8 -14.2°
Sets 19:37:09 0° 40° (NE) 2,554 4.5 -14.6°
